EW1940 Weather Reports


Display with metric or nautical units.
time (UTC)temp
F
wind
direction
speed
MPH
gust
MPH
rain 1hr
in
rain 24hr
in
rain mn
in
humidity
%
barometer
mb
20260506152017 62 0 2.0 7.0 0.00 0.00 0.00 48 1012.5
20260506151017 62 0 3.0 8.0 0.00 0.00 0.00 46 1012.5
20260506150019 62 338 2.0 8.0 0.00 0.00 0.00 48 1012.5
20260506145017 62 68 2.0 8.0 0.00 0.00 0.00 47 1012.5
20260506144037 62 0 4.0 8.0 0.00 0.00 0.00 47 1012.6
20260506143017 62 23 3.0 8.0 0.00 0.00 0.00 46 1012.5
20260506142017 63 23 4.0 9.0 0.00 0.00 0.00 48 1012.6
20260506141019 62 45 5.0 11.0 0.00 0.00 0.00 48 1012.6
20260506140017 63 338 3.0 7.0 0.00 0.00 0.00 47 1012.5
20260506135017 64 23 3.0 7.0 0.00 0.00 0.00 44 1012.6
20260506134017 65 338 3.0 7.0 0.00 0.00 0.00 45 1012.5
20260506133019 64 338 5.0 10.0 0.00 0.00 0.00 43 1012.6
20260506132018 65 45 4.0 9.0 0.00 0.00 0.00 46 1012.6
20260506131018 65 23 4.0 10.0 0.00 0.00 0.00 45 1012.5
20260506130018 65 45 4.0 9.0 0.00 0.00 0.00 45 1012.6
20260506125037 65 338 3.0 6.0 0.00 0.00 0.00 45 1012.6
20260506124017 64 45 4.0 11.0 0.00 0.00 0.00 46 1012.6
20260506123019 65 23 6.0 16.0 0.00 0.00 0.00 43 1012.6
20260506122018 66 45 6.0 11.0 0.00 0.00 0.00 41 1012.7
20260506121017 66 0 5.0 11.0 0.00 0.00 0.00 42 1012.7
20260506120017 65 45 5.0 10.0 0.00 0.00 0.00 44 1012.7
20260506115018 65 0 4.0 9.0 0.00 0.00 0.00 45 1012.9
20260506114017 64 0 3.0 10.0 0.00 0.00 0.00 47 1012.9
20260506113038 65 338 5.0 10.0 0.00 0.00 0.00 47 1012.8
20260506112017 66 23 4.0 13.0 0.00 0.00 0.00 42 1012.8
20260506111017 66 0 5.0 13.0 0.00 0.00 0.00 42 1012.9
20260506110018 65 0 4.0 11.0 0.00 0.00 0.00 45 1012.9
20260506105017 64 23 3.0 7.0 0.00 0.00 0.00 48 1012.9
20260506104018 64 45 3.0 9.0 0.00 0.00 0.00 47 1013.0
20260506103018 63 45 5.0 10.0 0.00 0.00 0.00 48 1013.0
20260506102018 63 45 5.0 10.0 0.00 0.00 0.00 46 1013.0
20260506101038 63 0 5.0 10.0 0.00 0.00 0.00 47 1013.0
20260506100018 62 45 3.0 10.0 0.00 0.00 0.00 49 1013.0
20260506095016 62 315 4.0 8.0 0.00 0.00 0.00 52 1013.1
20260506094016 61 23 3.0 8.0 0.00 0.00 0.00 54 1013.1
20260506093016 61 315 4.0 9.0 0.00 0.00 0.00 55 1013.1
20260506092017 61 315 3.0 7.0 0.00 0.00 0.00 56 1013.1
20260506091018 61 23 3.0 10.0 0.00 0.00 0.00 55 1013.1
20260506090036 60 23 5.0 11.0 0.00 0.00 0.00 59 1013.0
20260506085016 59 23 4.0 10.0 0.00 0.00 0.00 59 1013.0
20260506084018 60 45 6.0 12.0 0.00 0.00 0.00 59 1013.1
20260506083038 59 23 6.0 10.0 0.00 0.00 0.00 61 1013.1
20260506082016 58 0 5.0 10.0 0.00 0.00 0.00 64 1013.1
20260506081016 57 23 4.0 9.0 0.00 0.00 0.00 68 1012.9
20260506073016 53 23 6.0 12.0 0.00 0.00 0.00 74 1012.8
20260506072018 52 23 4.0 9.0 0.00 0.00 0.00 75 1012.8
20260506071016 52 23 6.0 12.0 0.00 0.00 0.00 77 1012.7
20260506062018 51 23 4.0 10.0 0.00 0.00 0.00 78 1012.5
20260506061016 51 23 5.0 10.0 0.00 0.00 0.00 79 1012.4
20260506051017 51 23 4.0 9.0 0.00 0.00 0.00 80 1012.1
20260506045016 51 45 2.0 7.0 0.00 0.00 0.00 79 1011.9
20260506044016 52 45 1.0 3.0 0.00 0.00 0.00 78 1011.9
20260506043017 52 23 1.0 6.0 0.00 0.00 0.00 77 1011.9
20260506042016 52 45 2.0 5.0 0.00 0.00 0.00 77 1012.0
20260506041016 52 45 3.0 8.0 0.00 0.00 0.00 76 1012.0
20260506040016 52 45 2.0 7.0 0.00 0.00 0.00 76 1012.0
20260506035017 52 68 2.0 4.0 0.00 0.00 0.00 75 1011.9
20260506034036 52 45 2.0 6.0 0.00 0.00 0.00 75 1012.0
20260506033017 52 45 2.0 4.0 0.00 0.00 0.00 75 1011.9
20260506032016 52 45 3.0 8.0 0.00 0.00 0.00 74 1011.9
20260506031016 52 45 4.0 11.0 0.00 0.00 0.00 73 1012.0
20260506030016 53 45 4.0 11.0 0.00 0.00 0.00 73 1011.9
20260506025017 53 45 2.0 5.0 0.00 0.00 0.00 73 1012.0
20260506024017 53 45 3.0 8.0 0.00 0.00 0.00 73 1011.9
20260506023037 53 45 4.0 13.0 0.00 0.00 0.00 73 1011.9
20260506022016 53 45 4.0 12.0 0.00 0.00 0.00 74 1011.9
20260506021016 53 45 5.0 12.0 0.00 0.00 0.00 75 1011.9
20260506020016 54 45 4.0 9.0 0.00 0.00 0.00 76 1012.0
20260506015016 54 45 3.0 10.0 0.00 0.00 0.00 76 1012.0
20260506014017 54 45 2.0 5.0 0.00 0.00 0.00 75 1012.0
20260506013015 54 45 3.0 7.0 0.00 0.00 0.00 75 1012.0
20260506012016 54 45 3.0 7.0 0.00 0.00 0.00 75 1012.1
20260506011015 54 45 3.0 8.0 0.00 0.00 0.00 74 1012.1
20260506010016 54 45 3.0 8.0 0.00 0.00 0.00 74 1012.1
20260506005016 54 90 2.0 5.0 0.00 0.00 0.00 73 1012.1
20260506004015 54 45 1.0 3.0 0.00 0.00 0.00 73 1012.2
20260506003015 54 90 2.0 8.0 0.00 0.00 0.00 72 1012.2
20260506002017 54 90 1.0 4.0 0.00 0.00 0.00 72 1012.3
20260506001037 55 90 2.0 5.0 0.00 0.00 0.00 71 1012.3
20260506000017 55 113 2.0 7.0 0.00 0.00 0.00 70 1012.3
20260505235015 55 45 3.0 10.0 0.00 0.00 0.00 69 1012.2
20260505234018 55 45 3.0 8.0 0.00 0.00 0.00 69 1012.2
20260505233017 55 45 3.0 5.0 0.00 0.00 0.00 69 1012.1
20260505232015 55 90 3.0 9.0 0.00 0.00 0.00 70 1012.1
20260505231036 55 68 2.0 5.0 0.00 0.00 0.00 71 1012.0
20260505230015 56 90 2.0 4.0 0.00 0.00 0.00 73 1012.0
20260505225016 56 90 1.0 4.0 0.00 0.00 0.00 74 1011.9
20260505224016 56 45 2.0 5.0 0.00 0.00 0.00 74 1011.8
20260505223015 56 45 3.0 8.0 0.00 0.00 0.00 74 1011.9
20260505222017 56 45 3.0 6.0 0.00 0.00 0.00 76 1011.8
20260505221017 56 45 2.0 4.0 0.00 0.00 0.00 77 1011.7
20260505220018 56 45 2.0 5.0 0.00 0.00 0.00 77 1011.6
20260505215018 56 23 1.0 3.0 0.00 0.00 0.00 77 1011.6
20260505214040 56 23 1.0 3.0 0.00 0.00 0.00 78 1011.6
20260505213039 57 0.0 0.0 0.00 0.00 0.00 78 1011.7
20260505212058 57 0.0 0.0 0.00 0.00 0.00 78 1011.6
20260505211017 57 0.0 0.0 0.00 0.00 0.00 78 1011.5
20260505210019 57 0.0 0.0 0.00 0.00 0.00 77 1011.6
20260505205101 58 0.0 0.0 0.00 0.00 0.00 77 1011.6
20260505204019 58 0.0 0.0 0.00 0.00 0.00 76 1011.5
20260505203015 58 0.0 0.0 0.00 0.00 0.00 76 1011.5
20260505202019 58 0.0 0.0 0.00 0.00 0.00 75 1011.5
20260505201017 58 0.0 0.0 0.00 0.00 0.00 74 1011.5
20260505200040 58 0.0 0.0 0.00 0.00 0.00 73 1011.5
20260505195017 58 0.0 0.0 0.00 0.00 0.00 73 1011.4
20260505194037 59 23 1.0 2.0 0.00 0.00 0.00 72 1011.3
20260505193017 59 0 1.0 3.0 0.00 0.00 0.00 72 1011.2
20260505192017 59 0.0 2.0 0.00 0.00 0.00 72 1011.2
20260505191017 59 23 1.0 3.0 0.00 0.00 0.00 71 1011.1
20260505190018 59 0 1.0 3.0 0.00 0.00 0.00 71 1011.1
20260505185037 59 0 1.0 2.0 0.00 0.00 0.00 70 1011.0
20260505184017 59 0 1.0 4.0 0.00 0.00 0.00 71 1011.0
20260505183017 59 23 1.0 2.0 0.00 0.00 0.00 70 1010.9
20260505182019 60 0 1.0 3.0 0.00 0.00 0.00 70 1010.9
20260505181040 60 338 1.0 3.0 0.00 0.00 0.00 69 1010.8
20260505180017 60 0 2.0 3.0 0.00 0.00 0.00 69 1010.9
20260505175018 60 338 1.0 3.0 0.00 0.00 0.00 69 1011.0
20260505174017 60 0 1.0 3.0 0.00 0.00 0.00 68 1011.0
20260505173017 60 338 2.0 3.0 0.00 0.00 0.00 68 1011.0
20260505172017 60 338 2.0 3.0 0.00 0.00 0.00 68 1011.0
20260505171018 61 338 2.0 6.0 0.00 0.00 0.00 67 1011.0
20260505170018 61 338 3.0 9.0 0.00 0.00 0.00 66 1011.0
20260505165018 61 338 2.0 7.0 0.00 0.00 0.00 66 1011.1
20260505164017 62 0 2.0 7.0 0.00 0.00 0.00 66 1011.1
20260505163017 62 23 3.0 9.0 0.00 0.00 0.00 65 1011.0
20260505162017 62 0 4.0 8.0 0.00 0.00 0.00 65 1011.1
20260505161017 62 338 2.0 7.0 0.00 0.00 0.00 65 1011.1
20260505153017 63 338 2.0 4.0 0.00 0.00 0.00 65 1011.2